User: anonymous   Login
Location: Bouchavesnes-Bergen
(49.9859°N, 2.9203°E)
Time: 18:16:46
(UTC+00:00)
Language:

ADEOS II - Orbit

View from above orbital plane
View from above orbital plane
View from above satellite
View from above satellite

Ground track
Ground track

The orbit data is extracted from the following two-line orbital elements,

1 27597U 02056A   21135.85195902  .00000053  00000-0  39314-4 0  9996
2 27597  98.5624  81.8206 0002145  89.3086 270.8341 14.27498615959237
Epoch (UTC): 15 May 2021 20:26:49
Eccentricity: 0.0002145
inclination: 98.5624°
perigee height: 798 km
apogee height: 801 km
right ascension of ascending node: 81.8206°
argument of perigee: 89.3086°
revolutions per day: 14.27498615
mean anomaly at epoch: 270.8341°
orbit number at epoch: 95923

The dashed part of the orbit path shows where the satellite is in the earth's shadow,  

DLR